Weather History for GMFM - November, 2013

Change the Weather History Date:

Thursday, November 28, 2013

  Actual Average Record
Temperature  
Mean Temperature 51 °F -  
Max Temperature 58 °F - - ()
Min Temperature 44 °F - - ()
Degree Days  
Heating Degree Days 14    
Growing Degree Days 1 (Base 50)    
Moisture  
Dew Point 40 °F    
Average Humidity 62    
Maximum Humidity 82    
Minimum Humidity 41    
Precipitation  
Precipitation 0.00 in - - ()
Sea Level Pressure  
Sea Level Pressure 30.07 in    
Wind  
Wind Speed 4 mph ()    
Max Wind Speed 8 mph    
Max Gust Speed -    
Visibility 5.2 miles    
Events      
T = Trace of Precipitation, MM = Missing Value Source: Averaged Metar Reports

Daily Weather History Graph

Daily Weather History Graph

Search for Another Location

Airport or City:

Trip Planner

Search our weather history database for the weather conditions in past years. The results will help you decide how hot, cold, wet, or windy it might be!

Date:

Astronomy

Nov. 28, 2013 Rise Set
Actual Time 7:06 AM WET 5:13 PM WET
Civil Twilight 6:39 AM WET 5:40 PM WET
Nautical Twilight 6:08 AM WET 6:11 PM WET
Astronomical Twilight 5:38 AM WET 6:41 PM WET
Moon 2:07 AM WET (11/28) 2:03 PM WET (11/28)
Length of Visible Light 11h 01m
Length of Day
10h 07m
Waning Crescent, 24% of the Moon is Illuminated
Nov 28
Waning Crescent
Dec 3
New
Dec 9
First Quarter
Dec 17
Full
Dec 25
Last Quarter

Hourly Weather History & Observations

Time (WET) Temp. Windchill Dew Point Humidity Pressure Visibility Wind Dir Wind Speed Gust Speed Precip Events Conditions
12:00 AM - - 38 °F % 30.10 in 6 mi South 4.6 mph - -   Clear
12:00 AM 44.6 °F 42.2 °F 37.4 °F 76% 30.06 in - South 4.6 mph - N/A   Clear
1:00 AM 44.6 °F 43.1 °F 37.4 °F 76% 30.06 in - South 3.5 mph - N/A   Clear
2:00 AM 48.2 °F - 35.6 °F 62% 30.04 in - SSE 4.6 mph - N/A   Clear
3:00 AM 48 °F - 37 °F 56% 30.06 in 6 mi South 4.6 mph - -   Clear
3:00 AM 48.2 °F - 37.4 °F 66% 30.04 in - South 5.8 mph - N/A   Clear
4:00 AM 48.2 °F - 37.4 °F 66% 30.04 in - South 5.8 mph - N/A   Clear
5:00 AM 46.4 °F 42.9 °F 39.2 °F 76% 30.04 in - South 6.9 mph - N/A   Clear
6:00 AM 50 °F - 38 °F 53% 30.05 in 6 mi South 6.9 mph - -   Clear
6:00 AM 50.0 °F - 37.4 °F 62% 30.04 in - South 6.9 mph - N/A   Clear
7:00 AM 51.8 °F - 37.4 °F 58% 30.06 in - South 6.9 mph - N/A   Clear
8:00 AM 48.2 °F - 39.2 °F 71% 30.09 in - NW 3.5 mph - N/A   Clear
9:00 AM 51 °F - 40 °F 55% 30.12 in 6 mi West 2.3 mph - -   Scattered Clouds
9:00 AM 50.0 °F - 39.2 °F 66% 30.09 in - West 2.3 mph - N/A   Clear
10:00 AM 53.6 °F - 39.2 °F 58% 30.12 in - West 2.3 mph - N/A   Clear
11:00 AM 55.4 °F - 39.2 °F 54% 30.09 in 6.2 mi West 4.6 mph - N/A   Scattered Clouds
12:00 PM 56 °F - 39 °F 41% 30.09 in 5 mi West 4.6 mph - -   Partly Cloudy
12:00 PM 55.4 °F - 39.2 °F 54% 30.09 in 5.0 mi West 4.6 mph - N/A   Scattered Clouds
1:00 PM 57.2 °F - 39.2 °F 51% 30.06 in 5.0 mi NW 4.6 mph - N/A   Scattered Clouds
2:00 PM 57.2 °F - 41.0 °F 55% 30.06 in 5.0 mi NW 3.5 mph - N/A   Scattered Clouds
3:00 PM 56 °F - 40 °F 43% 30.05 in 5 mi NNW 5.8 mph - -   Partly Cloudy
3:00 PM 55.4 °F - 39.2 °F 54% 30.06 in 5.0 mi NNW 5.8 mph - N/A   Scattered Clouds
4:00 PM 55.4 °F - 39.2 °F 54% 30.06 in 5.0 mi NNW 4.6 mph - N/A   Scattered Clouds
5:00 PM 55.4 °F - 41.0 °F 58% 30.06 in 3.7 mi Calm Calm - N/A   Scattered Clouds
6:00 PM 53 °F - 43 °F 60% 30.09 in 5 mi East 3.5 mph - -   Partly Cloudy
6:00 PM 53.6 °F - 42.8 °F 67% 30.09 in 5.0 mi East 3.5 mph - N/A   Scattered Clouds
7:00 PM 51.8 °F - 42.8 °F 71% 30.09 in 5.0 mi East 3.5 mph - N/A   Scattered Clouds
8:00 PM 51.8 °F - 42.8 °F 71% 30.09 in - East 8.1 mph - N/A   Clear
9:00 PM 51 °F - 42 °F 63% 30.11 in 5 mi ESE 4.6 mph - -   Scattered Clouds
9:00 PM 51.8 °F - 42.8 °F 71% 30.09 in - ESE 4.6 mph - N/A   Clear
10:00 PM 48.2 °F - 42.8 °F 82% 30.09 in - ESE 3.5 mph - N/A   Clear
11:00 PM 50.0 °F - 42.8 °F 76% 30.09 in - East 4.6 mph - N/A   Clear